SCP
2 2 2 3 2 2 1 1 1 1 1 0 0 0 0 0 0 0 0 0 0 0 0 0 0 0 0 0 0 0 0 0 0 0 0 0 1 1 1 1 1 1 1
1 2 2 3 2 1 1 1 1 0 0 0 0 0 0 0 0 0 0 0 0 0 0 0 0 0 0 0 0 0 0 0 0 0 0 0 0 1 1 1 1 1 1
1 1 2 2 2 1 1 0 0 0 0 0 0 0 0 0 0 0 0 0 0 0 0 0 0 0 0 0 0 0 0 0 0 0 0 0 0 0 0 1 1 1 1
1 1 2 2 1 1 1 0 0 0 0 0 0 0 0 0 0 0 0 0 0 0 0 0 0 0 0 0 0 0 0 0 0 0 0 0 0 0 0 0 0 1 1
1 2 2 2 2 1 0 0 0 0 0 0 0 0 0 0 0 0 0 0 0 0 0 0 0 0 0 0 0 0 0 0 0 0 0 0 0 0 0 0 0 0 0
1 2 2 2 2 1 1 0 0 0 0 0 1 0 0 0 0 0 0 0 0 0 0 0 0 0 0 0 0 0 0 0 0 0 0 0 0 0 0 0 0 0 0
1 1 2 2 1 1 1 1 1 1 1 1 1 0 0 0 0 0 0 0 0 0 0 0 0 0 0 0 0 0 0 0 0 0 0 0 0 0 0 0 0 0 0
1 1 1 1 1 1 1 1 1 1 1 1 1 0 0 0 0 0 0 0 0 0 0 0 0 0 0 0 0 0 0 0 0 0 0 0 0 0 0 0 0 0 0
0 1 1 1 1 1 1 1 1 1 1 1 1 0 0 0 0 0 0 0 0 0 0 0 0 0 0 0 0 0 0 0 0 0 0 0 0 0 0 0 0 0 0
0 0 1 1 1 1 1 1 1 1 1 1 1 0 0 0 0 0 0 0 0 0 0 0 0 0 0 0 0 0 0 0 0 0 0 0 0 0 0 0 0 0 0
0 1 1 1 1 1 1 1 1 1 1 1 1 0 0 0 0 0 0 0 0 0 0 0 0 0 0 0 0 0 0 0 0 0 0 0 0 0 0 0 0 0 0
0 1 1 1 1 1 1 1 1 1 1 1 1 0 0 0 0 0 0 0 0 0 0 0 0 0 0 0 0 0 0 0 0 0 0 0 0 0 0 0 0 0 0
0 1 1 1 0 0 1 1 1 1 1 1 1 0 0 0 0 0 0 0 0 0 0 0 0 0 0 0 0 0 0 0 0 0 0 0 0 0 0 0 0 0 0
0 1 1 1 0 0 1 1 1 1 1 1 1 0 0 0 0 0 0 0 0 0 0 0 0 0 0 0 0 0 0 0 0 0 0 0 0 0 0 0 0 0 0
1 1 1 1 0 0 0 1 1 1 1 1 0 0 0 0 0 0 0 0 0 0 0 0 0 0 0 0 0 0 0 0 0 0 0 0 0 0 0 0 0 0 0
1 1 0 0 0 0 0 1 1 1 1 0 0 0 0 0 0 0 0 0 0 0 0 0 0 0 0 0 0 0 0 0 0 0 0 0 0 0 0 0 0 0 0
0 0 0 0 0 0 0 1 1 1 1 0 0 0 0 0 0 0 0 0 0 0 0 0 0 0 0 0 0 0 0 0 0 0 0 0 0 0 0 0 0 0 0
0 0 0 0 0 0 0 0 0 0 0 0 0 0 0 0 0 0 0 0 0 0 0 0 0 0 0 0 0 0 0 0 0 0 0 0 0 0 0 0 0 0 0
0 0 0 0 0 0 0 0 0 0 0 0 0 0 0 0 0 0 0 0 0 0 0 0 0 0 0 0 0 0 0 0 0 0 0 0 0 0 0 0 0 0 0
0 0 0 0 0 0 0 0 0 0 0 0 0 0 0 0 0 0 0 0 0 0 0 0 0 0 0 0 0 0 0 0 0 0 0 0 0 0 0 0 0 0 0
0 0 0 0 0 0 0 0 0 0 0 0 0 0 0 0 0 0 0 0 0 0 0 0 0 0 0 0 0 0 0 0 0 0 0 0 0 0 0 0 0 0 0
0 0 0 0 0 0 0 0 0 0 0 0 0 0 0 0 0 0 0 0 0 0 0 0 0 0 0 0 0 0 0 0 0 0 0 0 0 0 0 0 0 0 0
0 0 0 0 0 0 0 0 0 0 0 0 0 0 0 0 0 0 0 0 0 0 0 0 0 0 0 0 0 0 0 0 0 0 0 0 0 0 0 0 0 0 0
0 0 0 0 0 0 0 0 0 0 0 0 0 0 0 0 0 0 0 0 0 0 0 0 0 0 0 0 0 0 0 0 0 0 0 0 0 0 0 0 0 0 0
0 0 0 0 0 0 0 0 0 0 0 0 0 0 0 0 0 0 0 0 0 0 0 0 0 0 0 0 0 0 0 0 0 0 0 0 0 0 0 0 0 0 0
0 0 0 1 1 1 0 0 0 0 0 0 0 0 0 0 0 0 0 0 0 0 0 0 0 0 0 0 0 0 0 0 0 0 0 0 0 0 0 0 0 0 0
Wind_Speed
5 5 6 8 9 7 7 7 7 5 4 3 3 3 2 2 2 2 4 4 4 4 4 3 3 3 2 2 2 1 2 2 2 2 4 4 3 2 2 2 2 3 4
5 5 6 6 7 7 6 6 6 5 5 3 3 3 3 2 2 2 2 3 4 4 4 3 2 2 2 3 3 3 2 2 2 2 2 4 5 4 3 2 2 3 2
10 10 9 7 7 7 8 8 7 6 5 5 3 3 3 3 2 1 1 1 2 3 4 4 3 2 2 2 2 2 2 1 2 1 2 1 2 4 4 3 3 3 2
9 10 10 9 9 8 8 7 7 6 5 5 5 5 4 3 2 2 1 0 1 2 3 4 4 3 2 2 1 2 1 1 1 2 1 1 2 1 4 4 3 4 4
11 12 11 10 10 9 8 7 7 6 6 6 6 6 4 3 2 1 1 0 1 0 2 3 3 3 2 2 1 1 1 1 1 1 1 1 1 1 1 4 5 5 4
12 11 11 9 8 8 8 8 8 6 6 6 6 7 6 4 3 2 1 0 1 1 1 3 3 2 2 1 1 1 0 1 1 1 1 1 1 1 1 2 3 4 4
12 11 11 11 10 10 10 9 9 7 7 7 6 6 6 6 4 3 2 2 1 1 1 2 2 2 2 2 1 1 1 1 2 2 2 2 3 3 2 2 3 3 4
12 13 13 13 13 13 11 10 10 8 7 7 6 6 6 4 3 4 3 3 2 2 2 2 2 2 2 2 1 1 2 2 2 3 3 2 3 3 3 3 2 3 3
14 14 14 13 13 12 12 12 11 8 8 8 7 6 6 5 5 4 3 3 2 2 3 2 2 1 2 2 2 2 3 2 3 3 4 3 3 3 3 3 3 3 3
14 14 14 13 11 11 10 11 11 10 8 8 7 6 6 6 5 4 4 4 3 3 3 2 2 2 2 2 2 3 3 3 4 3 4 4 3 3 3 3 3 3 4
15 14 12 11 10 10 10 10 10 8 8 8 7 7 6 6 5 5 4 4 3 4 4 3 3 3 3 3 3 4 4 4 4 4 4 5 4 3 3 3 3 3 3
13 12 12 11 11 11 11 10 10 9 9 8 7 7 6 6 5 5 4 4 4 4 4 4 4 4 4 4 4 5 4 4 5 5 5 5 4 4 4 3 4 4 4
10 10 11 12 12 11 11 10 10 10 8 8 8 7 6 6 6 6 5 5 5 4 4 4 4 5 5 4 5 5 5 5 5 5 5 6 5 5 4 5 5 4 5
12 12 11 11 11 11 11 10 9 9 8 8 8 7 7 7 7 6 6 5 5 5 5 5 5 5 5 5 5 5 5 5 5 5 5 6 6 6 6 5 6 5 5
12 13 13 11 10 10 9 9 9 8 8 8 8 8 7 7 6 6 6 6 5 6 6 5 5 5 5 5 5 5 5 5 5 5 5 6 8 10 8 6 5 5 4
13 13 12 12 12 12 11 9 9 9 8 9 8 8 7 7 6 6 6 6 6 5 5 5 6 6 5 7 9 7 5 5 6 6 6 6 8 10 11 11 10 9 7
12 13 14 14 14 13 12 12 10 9 9 9 8 8 7 7 7 7 6 6 6 6 6 6 6 6 8 11 11 12 7 6 6 6 6 6 7 8 6 8 10 9 11
12 13 12 12 11 11 10 10 9 9 9 9 8 8 8 8 7 6 7 7 5 5 5 6 7 6 8 11 12 13 8 6 7 7 7 7 8 8 8 7 7 7 7
11 12 12 12 11 11 11 10 9 9 9 9 9 9 8 8 7 7 7 6 5 5 6 5 7 7 8 11 13 11 5 6 8 8 7 7 8 11 12 7 7 8 7
6 7 8 8 9 10 10 10 10 9 11 11 10 8 8 8 8 9 7 6 6 7 6 7 7 8 9 11 13 12 5 6 7 6 7 10 10 11 10 6 6 8 8
2 5 7 8 9 8 9 9 8 10 10 8 7 7 7 8 8 7 6 6 6 6 6 7 8 8 10 11 14 12 7 7 7 6 6 6 11 11 11 8 7 10 9
3 2 4 4 4 6 9 9 9 8 6 6 6 6 6 6 6 6 6 6 6 7 7 7 8 7 8 10 11 14 14 11 7 7 6 7 11 12 11 8 10 13 10
5 3 2 2 1 2 6 8 7 4 4 4 4 4 4 5 4 5 6 5 5 6 6 6 7 8 6 7 13 14 14 14 9 7 10 11 12 11 9 12 15 11 6
5 5 5 4 2 0 2 4 3 4 4 4 4 3 3 4 4 4 5 5 5 6 7 7 8 8 6 6 6 6 6 9 8 7 8 10 11 10 11 11 9 7 6
6 6 6 5 4 3 2 0 2 4 4 3 3 3 4 4 5 5 5 7 7 8 9 8 8 7 8 10 12 8 6 6 6 4 2 3 4 5 5 6 6 6 5
6 7 8 7 6 6 5 4 1 2 3 2 2 3 3 3 4 5 7 10 12 15 16 17 14 10 13 14 13 14 13 11 8 5 4 5 6 7 7 7 7 6 6
Wind_Direction
175 156 147 139 131 130 132 138 136 142 132 120 118 117 127 137 136 159 152 146 137 123 113 101 79 69 65 37 21 26 19 358 0 13 336 321 311 303 284 285 273 260 248
155 156 148 149 145 146 146 146 146 149 145 139 141 143 139 135 138 136 142 153 146 142 136 124 112 91 68 40 38 48 41 357 22 50 16 345 338 336 331 331 320 306 285
169 170 168 166 160 161 165 161 159 156 153 142 119 94 77 67 64 75 114 184 160 153 145 140 132 116 101 72 47 68 85 16 348 47 99 57 303 313 322 337 348 339 325
175 175 172 174 176 177 172 163 163 158 153 141 130 129 130 135 166 171 182 240 167 163 161 150 141 131 117 104 85 103 108 103 353 345 32 184 197 254 314 321 332 337 332
181 183 183 183 181 178 174 170 165 159 154 145 138 128 128 142 143 122 108 4 345 53 150 144 132 129 126 125 97 89 96 143 177 248 302 331 344 161 197 301 322 329 317
189 189 188 182 181 179 176 170 164 164 160 151 143 141 143 145 132 121 116 13 13 36 97 131 134 142 149 165 191 196 219 217 226 228 217 208 233 262 230 265 296 304 302
189 188 186 184 187 186 183 175 168 168 166 154 151 151 150 147 147 153 153 141 110 102 142 135 149 162 192 209 204 213 250 248 248 245 237 222 219 214 206 224 270 288 295
190 191 191 189 191 191 184 175 173 170 168 160 160 158 152 145 147 155 157 158 167 180 175 153 166 195 218 228 214 225 246 241 248 260 252 245 246 224 210 209 230 292 303
191 194 193 191 189 186 183 177 172 169 169 167 163 162 160 156 163 166 158 159 172 176 161 160 177 219 237 244 235 236 252 252 250 254 256 250 253 245 232 215 196 206 269
192 193 192 190 186 180 176 169 166 168 168 166 168 168 168 168 169 164 172 181 193 191 187 203 216 240 255 255 241 248 254 255 258 250 256 260 256 256 247 233 219 199 209
194 193 189 183 173 167 165 165 165 162 165 168 166 162 171 173 171 175 189 194 201 201 204 215 226 240 250 252 245 249 252 250 260 265 256 259 258 256 257 250 239 228 207
193 186 176 167 164 165 167 167 168 169 173 171 169 171 174 173 177 189 201 198 203 210 212 216 225 238 243 244 242 250 250 241 248 255 255 260 262 257 255 250 248 245 229
184 175 168 167 169 169 169 170 174 177 175 169 170 174 179 181 191 201 205 204 206 214 220 218 227 238 244 243 241 239 244 242 243 245 246 253 254 258 256 251 249 249 253
175 171 171 172 172 172 172 173 179 178 172 169 172 180 189 192 198 202 204 207 207 212 221 224 229 234 237 238 241 242 241 243 246 247 245 247 244 246 250 251 246 246 251
171 173 173 172 172 172 175 176 176 175 169 168 177 190 194 195 197 202 208 213 215 219 219 224 233 234 233 234 231 232 233 237 247 254 252 251 255 253 250 249 240 238 238
177 175 173 172 175 178 180 178 178 177 168 173 186 191 190 193 199 206 212 216 223 227 224 226 231 237 237 236 230 220 227 233 240 252 259 264 268 269 268 266 258 237 228
175 177 179 181 183 184 180 182 182 175 173 180 187 188 190 197 206 209 209 216 221 224 226 230 232 238 244 247 247 240 224 229 237 243 253 266 269 270 266 270 274 267 251
179 184 186 188 188 184 182 180 173 173 180 187 193 194 194 202 208 208 214 218 216 218 226 233 237 241 249 248 249 246 231 232 240 240 241 248 261 267 260 259 263 259 258
184 188 189 187 185 185 182 172 176 180 185 195 201 202 197 201 205 211 219 218 214 223 226 231 236 241 253 252 252 243 223 234 246 246 245 241 250 262 265 256 255 262 265
179 181 180 172 181 190 176 174 183 186 198 204 206 202 198 201 208 214 216 214 214 225 230 238 238 239 248 253 252 239 215 234 249 253 251 248 249 257 264 245 240 253 259
181 164 160 175 192 180 166 178 184 201 208 203 198 199 202 206 212 217 218 219 224 232 237 243 247 245 247 255 254 241 211 223 238 247 251 248 248 252 257 247 232 243 252
19 112 147 181 184 166 167 178 196 206 192 182 190 200 207 213 215 217 228 229 228 237 245 249 258 257 253 249 251 243 227 221 222 238 244 247 252 253 255 253 248 254 258
22 33 93 112 78 163 172 187 208 187 166 170 189 206 214 223 222 220 231 237 234 238 247 247 254 260 254 250 247 245 238 229 222 236 242 249 257 260 261 258 257 258 247
23 32 54 59 41 66 180 203 189 152 155 179 200 208 219 238 244 240 236 238 243 246 251 250 252 255 253 249 244 236 234 233 231 240 251 259 263 261 258 262 262 246 230
30 45 51 45 22 22 28 32 158 153 168 191 211 225 233 243 255 257 249 248 246 242 243 250 246 245 250 246 229 214 218 214 217 208 241 255 260 260 260 259 255 247 235
38 42 41 39 32 33 24 6 9 148 167 209 245 255 258 262 265 273 282 266 260 266 256 252 250 250 245 249 240 227 223 214 187 173 229 247 250 254 258 260 261 250 239